TimeMDT,TemperatureF,Dew PointF,Humidity,Sea Level PressureIn,VisibilityMPH,Wind Direction,Wind SpeedMPH,Gust SpeedMPH,PrecipitationIn,Events,Conditions,WindDirDegrees,DateUTC
12:53 AM,75.0,61.0,62,29.83,10.0,NW,13.8,19.6,0.00,,Mostly Cloudy,310,2013-07-21 06:53:00
1:30 AM,71.6,62.6,73,29.98,10.0,South,17.3,27.6,0.01,Rain,Light Rain,180,2013-07-21 07:30:00
1:44 AM,71.6,62.6,73,29.96,10.0,SSW,9.2,-,0.01,Rain,Light Rain,200,2013-07-21 07:44:00
1:53 AM,73.0,62.1,68,29.76,10.0,SW,16.1,-,0.01,,Scattered Clouds,220,2013-07-21 07:53:00
2:53 AM,72.0,63.0,73,29.78,10.0,North,5.8,-,N/A,,Clear,10,2013-07-21 08:53:00
3:53 AM,66.9,60.1,79,29.80,10.0,NW,11.5,-,N/A,,Clear,320,2013-07-21 09:53:00
4:53 AM,66.0,60.1,81,29.79,10.0,WNW,8.1,-,N/A,,Clear,300,2013-07-21 10:53:00
5:53 AM,63.0,60.1,90,29.79,10.0,NNW,4.6,-,N/A,,Clear,330,2013-07-21 11:53:00
6:53 AM,64.9,60.1,84,29.79,10.0,NNW,6.9,-,N/A,,Clear,340,2013-07-21 12:53:00
7:53 AM,71.1,57.9,63,29.81,10.0,North,3.5,-,N/A,,Clear,350,2013-07-21 13:53:00
8:53 AM,73.9,57.0,55,29.81,10.0,SE,10.4,-,N/A,,Clear,130,2013-07-21 14:53:00
9:53 AM,78.1,55.0,45,29.81,10.0,SSE,6.9,-,N/A,,Clear,160,2013-07-21 15:53:00
10:53 AM,81.0,57.0,44,29.78,10.0,SSE,8.1,-,N/A,,Clear,160,2013-07-21 16:53:00
11:53 AM,86.0,55.9,36,29.76,10.0,SE,9.2,18.4,N/A,,Clear,130,2013-07-21 17:53:00
12:53 PM,91.0,54.0,28,29.75,10.0,SE,13.8,18.4,N/A,,Clear,130,2013-07-21 18:53:00
1:53 PM,91.9,53.1,27,29.73,10.0,ESE,13.8,20.7,N/A,,Clear,120,2013-07-21 19:53:00
2:53 PM,95.0,53.1,24,29.70,10.0,SSE,11.5,19.6,N/A,,Clear,160,2013-07-21 20:53:00
3:53 PM,97.0,53.1,23,29.67,10.0,SSE,11.5,20.7,N/A,,Clear,160,2013-07-21 21:53:00
4:53 PM,97.0,50.0,20,29.66,10.0,SE,12.7,-,N/A,,Clear,130,2013-07-21 22:53:00
5:53 PM,95.0,46.9,19,29.67,10.0,SSE,5.8,-,N/A,,Clear,150,2013-07-21 23:53:00
6:53 PM,93.9,48.0,21,29.67,10.0,ESE,12.7,-,N/A,,Clear,120,2013-07-22 00:53:00
7:53 PM,91.0,48.9,23,29.68,10.0,ESE,5.8,-,N/A,,Clear,120,2013-07-22 01:53:00
8:53 PM,88.0,45.0,22,29.70,10.0,SW,3.5,-,N/A,,Clear,230,2013-07-22 02:53:00
9:53 PM,84.9,45.0,25,29.72,10.0,Calm,Calm,-,N/A,,Clear,0,2013-07-22 03:53:00
10:53 PM,82.0,45.0,27,29.73,10.0,SSW,5.8,-,N/A,,Clear,200,2013-07-22 04:53:00
11:53 PM,80.1,45.0,29,29.73,10.0,SW,8.1,-,N/A,,Clear,220,2013-07-22 05:53:00